#timestamp,LO_Frequency,Hit,StdDev 
1527670815.8,286046998.8,N
1527670835.6,286046998.7,N
1527670855.4,286046998.1,N
1527670875.3,286046998.1,N
1527670895.1,286046998.5,N
1527670915.8,286046998.4,N
1527670935.7,286047000.9,N
1527670955.5,286047001.0,N
1527670975.4,286047000.8,N
1527670995.2,286046998.3,N
1527671015.0,286046998.8,N
1527671015.9,286046998.8,N
1527671035.8,286046998.8,N
1527671055.6,286047000.9,N
1527671075.4,286046999.9,N
1527671095.3,286046999.7,N
1527671115.1,286047011.9,Y
1527671135.9,286046999.8,P
1527671155.7,286047000.9,P
1527671175.5,286047000.4,N
1527671195.4,286047002.5,Y
1527671215.2,286047000.0,P
1527671235.1,286047002.6,P
1527671236.0,286047002.6,N
1527671255.8,286046999.9,N
1527671275.6,286047001.2,N
1527671295.5,286046998.1,N
1527671315.3,286046998.3,N
1527671335.1,286046998.3,N
1527671355.9,286046998.4,N
1527671375.7,286046999.2,N
1527671395.6,286047000.8,N
1527671415.4,286047000.8,N
1527671435.2,286047001.2,N
1527671455.1,286047001.2,N
1527671456.0,286047001.2,N
1527671475.8,286046998.7,N
1527671495.6,286046999.1,N
1527671515.5,286046999.6,N
1527671535.3,286046998.4,N
1527671555.2,286047001.1,N
1527671575.9,286047001.1,N
1527671595.7,286047001.0,N
1527671615.6,286047001.2,N
1527671635.4,286046998.1,N
1527671655.3,286046998.9,N
1527671675.1,286047001.2,N
1527671676.0,286047001.2,N
1527671695.8,286047000.9,N
1527671715.7,286047001.1,N
1527671735.5,286047000.2,N
1527671755.3,286047000.6,N
1527671775.2,286046998.5,N
1527671795.0,286047000.6,N
1527671795.9,286047000.6,N
1527671815.8,286047000.4,N
1527671835.6,286046999.9,N
1527671855.4,286047001.0,N
1527671875.3,286046998.1,N
1527671895.1,286046998.9,N
1527671915.9,286046999.0,N
1527671935.7,286046998.9,N
1527671955.5,286046998.9,N
1527671975.4,286046999.0,N
1527671995.2,286047001.2,N
1527672015.0,286047000.0,N
1527672015.9,286047000.0,N
1527672035.8,286047000.6,N
1527672055.6,286046998.5,N
1527672075.5,286046998.4,N
1527672095.3,286046998.2,N
1527672115.1,286046998.1,N
1527672135.9,286046998.5,N
1527672155.7,286047001.2,N
1527672175.5,286046998.7,N
1527672195.4,286046998.6,N
1527672215.2,286046998.1,N
1527672235.1,286046998.3,N
1527672236.0,286046998.3,N
1527672255.8,286046999.2,N
1527672275.6,286046999.6,N
1527672295.5,286046999.0,N
1527672315.3,286046999.2,N
1527672335.1,286046999.0,N
1527672355.9,286046997.8,N
1527672375.7,286046997.3,N
1527672395.6,286046999.2,N
1527672415.4,286046998.9,N
1527672435.2,286046996.7,Y
1527672455.1,286046998.2,P
1527672456.0,286046998.2,P
1527672475.8,286047001.2,P
1527672495.7,286046998.3,N
1527672515.5,286046998.3,N
1527672535.3,286047000.4,N
1527672555.2,286046998.1,N
1527672575.0,286047001.1,N
1527672575.9,286047001.1,N
1527672595.8,286046999.9,N
1527672615.6,286047002.3,N
1527672635.4,286047002.3,N
1527672655.3,286046999.9,N
1527672675.1,286047002.3,N
1527672695.8,286047002.3,N
1527672715.7,286047002.1,N
1527672735.5,286047003.9,N
1527672755.4,286047003.8,N
1527672775.2,286047004.1,N
1527672795.0,286047004.0,N
1527672795.9,286047004.0,N
1527672815.8,286047004.4,N
1527672835.6,286047003.8,N
1527672855.5,286047003.8,N
1527672875.3,286047006.0,N
1527672895.1,286047003.0,N
1527672915.9,286047003.4,N
1527672935.7,286047003.0,N
1527672955.5,286047005.5,N
1527672975.4,286047004.8,N
1527672995.2,286047005.6,N
1527673015.1,286047005.6,N
1527673016.0,286047005.6,N
1527673035.8,286047005.6,N
1527673055.6,286047003.4,N
1527673075.5,286047004.0,N
1527673095.3,286047004.4,N
1527673115.1,286047001.6,N
1527673135.9,286047002.7,N
1527673155.7,286046999.9,N
1527673175.6,286047002.6,N
1527673195.4,286047002.3,N
1527673215.2,286047002.5,N
1527673235.1,286047002.7,N
1527673236.0,286047002.7,N
1527673255.8,286047002.0,N
1527673275.7,286047002.4,N
1527673295.5,286046999.7,N
1527673315.3,286047000.4,N
1527673335.2,286047000.9,N
1527673355.0,286047000.1,N
1527673355.9,286047000.1,N
1527673375.8,286047002.3,N
1527673395.6,286047000.1,N
1527673415.4,286047000.7,N
1527673435.3,286047001.2,N
1527673455.1,286047000.7,N
1527673475.8,286047000.6,N
1527673495.7,286046998.1,N
1527673515.5,286046999.0,N
1527673535.4,286046998.9,N
1527673555.2,286046999.0,N
1527673575.0,286046998.4,N
1527673575.9,286046998.4,N
1527673595.8,286046998.8,N
1527673615.6,286046996.9,N
1527673635.4,286046997.6,N
1527673655.3,286046997.7,N
1527673675.1,286046994.9,N
1527673695.9,286046995.2,N
1527673715.7,286046995.6,N
1527673735.5,286046996.0,N
1527673755.4,286046996.3,N
1527673775.2,286046993.3,Y
1527673795.0,286046996.3,P
1527673795.9,286046996.3,N
1527673815.8,286046996.3,N
1527673835.6,286046996.4,N
1527673855.5,286046993.6,Y
1527673875.3,286046997.6,P
1527673895.1,286046997.8,P
1527673915.9,286046995.4,P
1527673935.7,286046995.3,Y
1527673955.6,286047001.2,P
1527673975.4,286047001.1,N
1527673995.2,286047000.3,N
1527674015.1,286047002.7,N
1527674016.0,286047002.7,N
1527674035.8,286047001.7,N
1527674055.6,286047002.3,N
1527674075.5,286047000.3,N
1527674095.3,286047000.5,N
1527674115.2,286047000.2,N
1527674135.9,286047002.1,N
1527674155.7,286046999.9,N
1527674175.6,286047000.2,N
1527674195.4,286047002.4,N
1527674215.2,286047001.6,N
1527674235.1,286047003.8,N
1527674236.0,286047003.8,N
1527674255.8,286047004.4,N
1527674275.7,286047001.3,N
1527674295.5,286047001.8,N
1527674315.3,286047002.1,N
1527674335.2,286047002.1,N
1527674355.0,286047004.3,N
1527674355.9,286047004.3,N
1527674375.8,286047001.7,N
1527674395.6,286047002.0,N
